Location: Dittelbrunn
(50.0738°N, 10.2196°E)
Time: 05:51:22
(UTC+00:00)

FREGAT/IRIS - Pass Details

Date: 18 September 2020
Orbit: 310 x 312 km, 96.9° (Epoch: 19 October)

Event Time Altitude Azimuth Distance (km) Brightness Sun altitude
Exits shadow 19:06:07 39° 183° (S) 503 2.9 -16.5°
Maximum altitude 19:06:55 73° 258° (WSW) 345 2.4 -16.6°
Drops below altitude 10° 19:09:35 10° 344° (NNW) 1,254 5.7 -17.0°
Sets 19:11:29 0° 346° (NNW) 2,095 6.9 -17.3°
